886  
ASUS44 KMOB 200712  
RWRMOB  
REGIONAL WEATHER ROUNDUP  
NATIONAL WEATHER SERVICE MOBILE AL  
200 AM CDT WED MAR 20 2019  
 
NOTE: "FAIR" INDICATES FEW OR NO CLOUDS BELOW 12,000 FEET WITH NO  
SIGNIFICANT WEATHER AND/OR S TO VISIBILITY
.  
 
* THESE STATIONS ARE PART OF THE UNIVERSITY OF SOUTH ALABAMA  
MESONET AND ARE NOT UNDER NWS OR FAA QUALITY CONTROL.
 
 
ALZ061>064-200800-  
COASTAL ALABAMA  
 
CITY SKY/WX TMP DP RH WIND PRES REMARKS
 
MOBILE REG APT FAIR 46 29 51 N7 30.20F  
BROOKLEY FIELD FAIR 46 33 60 NW5 30.21F  
USA CAMPUS* N/A 45 30 57 CALM 30.21F  
DOG RIVER* N/A 48 32 53 CALM 30.22F  
 
 
CITY SKY/WX TMP DP RH WIND PRES REMARKS
 
GULF SHORES FAIR 39 37 89 CALM 30.19F  
 

 
 
ALZ051>060-200800-  
INTERIOR SOUTHWEST AND SOUTH CENTRAL ALABAMA  
 
CITY SKY/WX TMP DP RH WIND PRES REMARKS
 
GREENVILLE FAIR 47 29 49 N5 30.21F  
EVERGREEN FAIR 40 35 83 CALM 30.21F  
ATMORE* N/A 43 36 75 CALM 30.20F  
ANDALUSIA/OPP FAIR 45 36 70 CALM 30.20F  
ANDALUSIA* N/A 45 36 70 NE3 30.19F  
FLORALA APT FAIR 41 36 82 CALM 30.22F  
FLORALA* N/A 41 39 93 CALM 30.20F  
 

 
 
FLZ001>006-200800-  
WESTERN FLORIDA PANHANDLE  
 
CITY SKY/WX TMP DP RH WIND PRES REMARKS
 
PENSACOLA FAIR 50 35 56 N7 30.19F  
NAS PENSACOLA FAIR 43 38 82 N3 30.18F  
MILTON FAIR 41 34 76 N5 30.20F  
WHTNG S FIELD FAIR 42 35 76 N6 30.20F  
 
 
CITY SKY/WX TMP DP RH WIND PRES REMARKS
 
JAY* N/A 45 34 65 N2 30.21F  
DUKE FIELD FAIR 37 34 87 CALM 30.19F  
CRESTVIEW FAIR 37 34 89 CALM 30.21F  
VALPARAISO FAIR 44 35 70 NE7 30.18F  
DESTIN FAIR 53 41 63 NE3 30.20F  
 

 
 
MSZ076-079-200800-  
INTERIOR SOUTHEAST MISSISSIPPI  
 
CITY SKY/WX TMP DP RH WIND PRES REMARKS
 
LEAKESVILLE* NOT AVBL  
AGRICOLA* N/A 46 28 49 N5 30.21F  
 

 
 
MARINE OBSERVATIONS  
 
STATION/POSITION TIME TEMP WIND PRES WAVE
 
AIR SEA DIR/SP/G HT/PER  
(UTC) (F) (DEG/KT/KT) (MB) (FT/S)  
PETIT BOIS ISLND 0648 55 30/ 14/ 16 1023.0F  
GRAND BAY 0530 48 360/ 5 1025.0S  
CEDAR POINT 0630 51 360/ 8 1022.7F  
E DAUPHIN ISLAND 0600 56 10/ 13/ 14 1023.1F  
USCG MOBILE BAY 0648 50 60 360/ 4/ 6 1022.8F  
STATE DOCKS 0636 51 59 1022.9F  
MEAHER PARK 0630 49 10/ 1 1023.7F  
WEEKS BAY 0545 43 1023.0F  
FORT MORGAN 0648 56 40/ 13/ 15 1022.2F  
12 S ORANGE BCH 0650 1022.2F 2/ 2  
PENSACOLA BAY 0648 51 62 20/ 2/ 4 1022.5F  
64 S DAUPHIN ISL 0650 30/ 10/ 16 1022.1F 3/ 6  
 

 
 
SELECTED LOCATIONS ACROSS THE REGION  
 
CITY SKY/WX TMP DP RH WIND PRES REMARKS
 
NEW ORLEANS FAIR 51 44 77 NW3 30.22F  
GULFPORT FAIR 46 32 58 N3 30.21F  
PASCAGOULA AP FAIR 41 32 70 CALM 30.20F  
PASCAGOULA* N/A 48 28 46 CALM 30.19F  
HATTIESBURG FAIR 38 35 89 CALM 30.24F  
LAUREL FAIR 38 34 85 N3 30.24F  
MERIDIAN FAIR 36 32 85 NW3 30.25F  
JACKSON FAIR 39 29 67 CALM 30.25F  
MONTGOMERY FAIR 44 35 70 N3 30.25F  
TROY FAIR 38 36 92 CALM 30.24F  
ASHFORD* N/A 45 36 70 NE3 30.19F  
DOTHAN N/A 44 36 73 NE6 30.25F  
PANAMA CITY FAIR 50 42 74 N6 30.19F  
 

 
 
 
 
CLICK HERE TO GO TO PREVIOUS BULLETINS.

The Nexlab AL Page
The Nexlab FL Page
The Nexlab MS Page Main Text Page